Weather Roundup
Issued by NWS

Home | Current Version | Previous Version | Text Only | Print | Product List | Glossary On
Versions: 1 2 3 4 5 6 7 8 9 10 11 12 13 14 15 16 17 18 19 20 21 22 23 24 25 26 27 28 29 30 31 32 33 34 35 36 37 38 39 40 41 42 43 44 45 46 47 48 49 50
000
NZUS93 KARX 050710
HRRWXR

CURRENT HOURLY OBSERVATIONS ACROSS
MUCH OF THE UPPER MISSISSIPPI VALLEY
NATIONAL WEATHER SERVICE LA CROSSE WI
200 AM CDT SUN JUL 05 2015


...SOUTHEAST MINNESOTA...


CITY           SKY/WX    TMP DP  RH WIND       PRES   REMARKS
ROCHESTER      CLEAR     61  58  90 S8        30.01F
ROCHESTER/MAYO FAIR      66  60  82 SE7       29.99F
WINONA         CLEAR     66  63  88 CALM      30.00S
AUSTIN         CLEAR     64  61  88 S5        29.99F
ALBERT LEA     CLEAR     66  61  82 S8        29.97F
DODGE CENTER   PTCLDY    64  61  88 S8        29.98F
PRESTON        CLEAR     63  59  85 S6        30.02F
OWATONNA       CLEAR     66  59  77 S12       29.96F
FARIBAULT      CLEAR     66  61  82 S5        29.95F
$$

...ELSEWHERE IN MINNESOTA...


CITY           SKY/WX    TMP DP  RH WIND       PRES   REMARKS
MINNEAPOLIS    CLEAR     71  60  68 S12       29.93F
INTNL FALLS    CLOUDY    64  61  90 VRB5      29.82F
DULUTH         PTCLDY    57  54  89 E7        29.92S
RED WING       CLEAR     68  61  77 CALM      29.95F
REDWOOD FALLS  PTCLDY    66  60  81 S13       29.89S
MANKATO        CLEAR     64  57  77 S8        29.93F
WORTHINGTON    PTCLDY    66  57  72 S13       29.92F
FAIRMONT       CLEAR     63  55  77 S8        29.94S
$$

...SOUTHWEST WISCONSIN...


CITY           SKY/WX    TMP DP  RH WIND       PRES   REMARKS
LA CROSSE      CLEAR     67  64  90 S5        30.00R
PRAIRIE DU CHI CLEAR     62  59  91 CALM      30.02S
BOSCOBEL       FOG       59  58  96 CALM      30.03S VSB 1/4
LONE ROCK      CLEAR     60  57  89 CALM      30.04R
PLATTEVILLE    CLEAR     64  62  90 S3        30.05R
FORT MC COY    CLEAR     58  57  94 CALM      30.03R
CAMP DOUGLAS   FOG       57  57 100 SE2       30.02S VSB 1/2
VIROQUA        FAIR      65  60  81 S7        30.04R
WIS DELLS      CLEAR     62  58  86 CALM      30.04R
$$

...ELSEWHERE IN WISCONSIN...


CITY           SKY/WX    TMP DP  RH WIND       PRES   REMARKS
MILWAUKEE      PTCLDY    67  55  65 S3        30.04R
MADISON        CLEAR     68  61  78 CALM      30.04R
GREEN BAY      CLEAR     62  60  93 CALM      30.02S FOG
EAU CLAIRE     CLEAR     67  63  87 S6        29.96F
BLACK RVR FLS  FAIR      58  58 100 CALM      30.01R FOG
MEDFORD        CLEAR     64  63  94 S6        30.02S FOG
WAUSAU         CLEAR     67  64  90 S6        30.01R FOG
WIS RAPIDS     CLEAR     64  61  90 CALM      30.04R
MARSHFIELD     MOCLDY    64  60  87 S5        30.03R FOG
RICE LAKE      CLEAR     66  62  88 SE5       29.97F FOG
$$

...NORTHEAST IOWA...


CITY           SKY/WX    TMP DP  RH WIND       PRES   REMARKS
DECORAH          N/A    N/A N/A N/A MISG        N/A
MASON CITY     CLEAR     60  58  92 S7        30.01F
CHARLES CITY   CLEAR     63  63 100 S6        30.02S
OELWEIN        CLEAR     61  59  94 SE5       30.03F
$$

...ELSEWHERE IN IOWA...


CITY           SKY/WX    TMP DP  RH WIND       PRES   REMARKS
DES MOINES     CLEAR     67  60  78 S7        29.99F
IOWA CITY      CLEAR     63  60  90 CALM      30.04R
FORT DODGE     CLEAR     66  57  72 S9        29.99S
$$

...NORTHERN ILLINOIS...


CITY           SKY/WX    TMP DP  RH WIND       PRES   REMARKS
CHICAGO-OHARE  PTCLDY    66  57  72 CALM      30.04R SMOKE
CHICAGO-MIDWAY PTCLDY    69  58  67 CALM      30.04R SMOKE
MOLINE         CLEAR     63  59  87 CALM      30.03R
ROCKFORD       CLEAR     64  59  83 CALM      30.06R
PEORIA         CLEAR     69  60  73 CALM      30.05R
$$

NOTE: "FAIR" INDICATES FEW OR NO CLOUDS BELOW 12,000 FEET WITH NO
SIGNIFICANT WEATHER AND/OR OBSTRUCTIONS TO VISIBILITY. WIND
SPEEDS ARE IN MILES-PER-HOUR.



USA.gov is the U.S. government's official web portal to all federal, state and local government web resources and services.